| time (UTC) | temp C | wind direction | speed KPH | gust KPH | rain 1hr cm | rain 24hr cm | rain mn cm | humidity % | barometer mb |
| 20260506045007 | 15 | 98 | 3.2 | 9.7 | 0.00 | 0.15 | 0.05 | 78 | 1015.4 |
| 20260506044506 | 15 | 121 | 4.8 | 9.7 | 0.00 | 0.15 | 0.05 | 79 | 1015.4 |
| 20260506044007 | 15 | 99 | 6.4 | 14.5 | 0.00 | 0.15 | 0.05 | 78 | 1015.4 |
| 20260506043008 | 15 | 92 | 6.4 | 14.5 | 0.00 | 0.15 | 0.05 | 78 | 1015.2 |
| 20260506042507 | 15 | 113 | 4.8 | 11.3 | 0.00 | 0.15 | 0.05 | 78 | 1015.1 |
| 20260506042007 | 15 | 113 | 4.8 | 9.7 | 0.00 | 0.15 | 0.05 | 78 | 1015.0 |
| 20260506041507 | 15 | 122 | 4.8 | 12.9 | 0.00 | 0.15 | 0.05 | 78 | 1014.9 |
| 20260506041004 | 15 | 109 | 4.8 | 12.9 | 0.00 | 0.15 | 0.05 | 78 | 1014.8 |
| 20260506040502 | 15 | 92 | 4.8 | 12.9 | 0.00 | 0.15 | 0.05 | 78 | 1014.6 |
| 20260506035504 | 15 | 126 | 4.8 | 8.0 | 0.00 | 0.18 | 0.05 | 78 | 1014.5 |
| 20260506035006 | 15 | 86 | 4.8 | 11.3 | 0.00 | 0.18 | 0.05 | 78 | 1014.3 |
| 20260506034505 | 15 | 116 | 6.4 | 12.9 | 0.00 | 0.18 | 0.05 | 78 | 1014.2 |
| 20260506034008 | 15 | 88 | 4.8 | 12.9 | 0.00 | 0.18 | 0.05 | 78 | 1014.2 |
| 20260506033506 | 15 | 109 | 4.8 | 12.9 | 0.00 | 0.18 | 0.05 | 78 | 1014.0 |
| 20260506033007 | 15 | 84 | 4.8 | 12.9 | 0.00 | 0.18 | 0.05 | 77 | 1013.8 |
| 20260506031507 | 15 | 83 | 4.8 | 11.3 | 0.00 | 0.18 | 0.05 | 78 | 1013.7 |
| 20260506025505 | 15 | 79 | 6.4 | 12.9 | 0.00 | 0.18 | 0.05 | 77 | 1013.3 |
| 20260506025007 | 15 | 67 | 6.4 | 12.9 | 0.00 | 0.18 | 0.05 | 78 | 1013.3 |
| 20260506024507 | 15 | 105 | 6.4 | 12.9 | 0.00 | 0.18 | 0.05 | 77 | 1013.1 |
| 20260506024006 | 15 | 91 | 4.8 | 9.7 | 0.00 | 0.18 | 0.05 | 78 | 1013.1 |
| 20260506023503 | 15 | 76 | 4.8 | 11.3 | 0.00 | 0.18 | 0.05 | 78 | 1013.0 |
| 20260506023007 | 15 | 128 | 3.2 | 8.0 | 0.00 | 0.18 | 0.05 | 78 | 1012.8 |
| 20260506022505 | 15 | 132 | 4.8 | 11.3 | 0.00 | 0.18 | 0.05 | 78 | 1012.9 |
| 20260506022007 | 15 | 106 | 6.4 | 11.3 | 0.00 | 0.18 | 0.05 | 78 | 1012.8 |
| 20260506021506 | 15 | 122 | 3.2 | 11.3 | 0.00 | 0.18 | 0.05 | 79 | 1012.7 |
| 20260506021006 | 15 | 92 | 1.6 | 6.4 | 0.00 | 0.18 | 0.05 | 79 | 1012.6 |
| 20260506020502 | 15 | 126 | 3.2 | 9.7 | 0.00 | 0.18 | 0.05 | 79 | 1012.5 |
| 20260506015504 | 15 | 109 | 3.2 | 11.3 | 0.00 | 0.20 | 0.05 | 78 | 1012.5 |
| 20260506015007 | 15 | 75 | 4.8 | 11.3 | 0.00 | 0.20 | 0.05 | 78 | 1012.4 |
| 20260506014504 | 15 | 84 | 6.4 | 14.5 | 0.00 | 0.20 | 0.05 | 78 | 1012.4 |
| 20260506014006 | 15 | 94 | 6.4 | 12.9 | 0.00 | 0.20 | 0.05 | 79 | 1012.4 |
| 20260506013504 | 15 | 84 | 6.4 | 14.5 | 0.00 | 0.20 | 0.05 | 78 | 1012.3 |
| 20260506012502 | 15 | 158 | 4.8 | 12.9 | 0.00 | 0.20 | 0.05 | 79 | 1012.3 |
| 20260506012003 | 15 | 137 | 6.4 | 12.9 | 0.00 | 0.20 | 0.05 | 78 | 1012.2 |
| 20260506011006 | 16 | 130 | 3.2 | 11.3 | 0.00 | 0.20 | 0.05 | 79 | 1012.1 |
| 20260506010504 | 16 | 53 | 4.8 | 12.9 | 0.00 | 0.20 | 0.05 | 79 | 1012.0 |
| 20260506010009 | 16 | 140 | 8.0 | 12.9 | 0.00 | 0.20 | 0.05 | 79 | 1012.0 |
| 20260506005505 | 16 | 161 | 9.7 | 16.1 | 0.00 | 0.20 | 0.05 | 79 | 1012.0 |
| 20260506005003 | 16 | 174 | 9.7 | 16.1 | 0.00 | 0.20 | 0.05 | 78 | 1012.0 |
| 20260506004505 | 16 | 155 | 8.0 | 14.5 | 0.00 | 0.20 | 0.05 | 78 | 1011.9 |
| 20260506004002 | 16 | 150 | 8.0 | 14.5 | 0.00 | 0.20 | 0.05 | 77 | 1011.9 |
| 20260506003502 | 16 | 171 | 8.0 | 12.9 | 0.00 | 0.20 | 0.05 | 79 | 1011.9 |
| 20260506003007 | 16 | 159 | 6.4 | 11.3 | 0.00 | 0.20 | 0.05 | 78 | 1011.9 |
| 20260506002504 | 16 | 155 | 6.4 | 12.9 | 0.00 | 0.20 | 0.05 | 77 | 1011.8 |
| 20260506002006 | 16 | 153 | 6.4 | 12.9 | 0.00 | 0.20 | 0.05 | 77 | 1011.8 |
| 20260506001502 | 16 | 153 | 4.8 | 11.3 | 0.00 | 0.20 | 0.05 | 77 | 1011.8 |
| 20260506001003 | 16 | 181 | 4.8 | 11.3 | 0.00 | 0.20 | 0.05 | 77 | 1011.8 |
| 20260506000504 | 16 | 143 | 1.6 | 11.3 | 0.00 | 0.20 | 0.05 | 76 | 1011.8 |
| 20260506000006 | 16 | 147 | 3.2 | 9.7 | 0.00 | 0.20 | 0.05 | 78 | 1011.7 |
| 20260505235504 | 16 | 148 | 6.4 | 11.3 | 0.00 | 0.20 | 0.05 | 77 | 1011.7 |
| 20260505235006 | 16 | 166 | 8.0 | 11.3 | 0.00 | 0.20 | 0.05 | 77 | 1011.8 |
| 20260505234505 | 16 | 215 | 6.4 | 9.7 | 0.00 | 0.20 | 0.05 | 77 | 1011.8 |
| 20260505232505 | 16 | 236 | 6.4 | 12.9 | 0.00 | 0.20 | 0.05 | 77 | 1011.9 |
| 20260505232005 | 16 | 171 | 6.4 | 14.5 | 0.00 | 0.20 | 0.05 | 78 | 1011.9 |
| 20260505231505 | 16 | 148 | 8.0 | 14.5 | 0.00 | 0.20 | 0.05 | 77 | 1011.8 |
| 20260505231002 | 16 | 203 | 8.0 | 14.5 | 0.00 | 0.20 | 0.05 | 77 | 1011.9 |
| 20260505230505 | 16 | 181 | 8.0 | 14.5 | 0.00 | 0.20 | 0.05 | 78 | 1012.0 |
| 20260505230003 | 16 | 207 | 8.0 | 14.5 | 0.00 | 0.20 | 0.05 | 77 | 1011.9 |
| 20260505225502 | 16 | 135 | 6.4 | 12.9 | 0.00 | 0.20 | 0.05 | 77 | 1012.0 |
| 20260505225005 | 16 | 211 | 8.0 | 16.1 | 0.00 | 0.20 | 0.05 | 77 | 1012.0 |
| 20260505224505 | 16 | 184 | 8.0 | 16.1 | 0.00 | 0.20 | 0.05 | 79 | 1012.0 |
| 20260505224006 | 16 | 198 | 9.7 | 16.1 | 0.00 | 0.20 | 0.05 | 78 | 1012.0 |
| 20260505223505 | 16 | 157 | 9.7 | 16.1 | 0.00 | 0.20 | 0.05 | 76 | 1012.0 |
| 20260505223005 | 16 | 211 | 9.7 | 17.7 | 0.00 | 0.20 | 0.05 | 79 | 1012.0 |
| 20260505222505 | 16 | 161 | 9.7 | 17.7 | 0.00 | 0.20 | 0.05 | 75 | 1012.1 |
| 20260505221504 | 16 | 173 | 11.3 | 17.7 | 0.00 | 0.20 | 0.05 | 76 | 1012.1 |
| 20260505221006 | 16 | 175 | 11.3 | 16.1 | 0.00 | 0.20 | 0.05 | 77 | 1012.1 |
| 20260505220008 | 16 | 161 | 9.7 | 17.7 | 0.00 | 0.20 | 0.05 | 76 | 1012.2 |
| 20260505215504 | 16 | 153 | 8.0 | 14.5 | 0.00 | 0.20 | 0.05 | 75 | 1012.2 |
| 20260505215006 | 16 | 165 | 8.0 | 16.1 | 0.00 | 0.20 | 0.05 | 80 | 1012.2 |
| 20260505214007 | 16 | 162 | 11.3 | 17.7 | 0.00 | 0.20 | 0.05 | 77 | 1012.3 |
| 20260505213006 | 16 | 185 | 11.3 | 17.7 | 0.00 | 0.20 | 0.05 | 79 | 1012.3 |
| 20260505212507 | 16 | 141 | 11.3 | 24.1 | 0.00 | 0.20 | 0.05 | 77 | 1012.2 |
| 20260505211503 | 16 | 198 | 12.9 | 22.5 | 0.00 | 0.20 | 0.05 | 76 | 1012.3 |
| 20260505210503 | 17 | 202 | 8.0 | 17.7 | 0.00 | 0.20 | 0.05 | 77 | 1012.4 |
| 20260505210008 | 16 | 192 | 8.0 | 16.1 | 0.00 | 0.20 | 0.05 | 77 | 1012.5 |
| 20260505205505 | 16 | 174 | 8.0 | 14.5 | 0.00 | 0.20 | 0.05 | 76 | 1012.4 |
| 20260505205003 | 16 | 222 | 9.7 | 19.3 | 0.00 | 0.20 | 0.05 | 79 | 1012.5 |
| 20260505204004 | 16 | 192 | 9.7 | 17.7 | 0.00 | 0.20 | 0.05 | 77 | 1012.5 |
| 20260505203502 | 16 | 252 | 9.7 | 17.7 | 0.00 | 0.20 | 0.05 | 78 | 1012.6 |
| 20260505202504 | 15 | 215 | 9.7 | 17.7 | 0.00 | 0.20 | 0.05 | 78 | 1012.6 |
| 20260505202006 | 15 | 163 | 8.0 | 16.1 | 0.00 | 0.20 | 0.05 | 78 | 1012.6 |
| 20260505201002 | 15 | 220 | 12.9 | 20.9 | 0.00 | 0.20 | 0.05 | 80 | 1012.8 |
| 20260505200502 | 15 | 161 | 11.3 | 20.9 | 0.00 | 0.20 | 0.05 | 79 | 1012.8 |
| 20260505195504 | 15 | 191 | 8.0 | 16.1 | 0.00 | 0.20 | 0.05 | 79 | 1012.8 |
| 20260505195012 | 15 | 181 | 8.0 | 14.5 | 0.00 | 0.20 | 0.05 | 82 | 1012.8 |
| 20260505194502 | 15 | 182 | 9.7 | 14.5 | 0.00 | 0.20 | 0.05 | 79 | 1012.8 |
| 20260505194004 | 15 | 169 | 9.7 | 17.7 | 0.00 | 0.20 | 0.05 | 80 | 1012.9 |
| 20260505193002 | 15 | 165 | 8.0 | 17.7 | 0.00 | 0.20 | 0.05 | 79 | 1012.9 |
| 20260505192502 | 15 | 189 | 8.0 | 14.5 | 0.00 | 0.20 | 0.05 | 81 | 1013.0 |
| 20260505192003 | 15 | 173 | 8.0 | 12.9 | 0.00 | 0.20 | 0.05 | 78 | 1013.0 |
| 20260505191502 | 15 | 148 | 6.4 | 14.5 | 0.00 | 0.20 | 0.05 | 77 | 1013.0 |
| 20260505191007 | 15 | 182 | 6.4 | 14.5 | 0.00 | 0.20 | 0.05 | 80 | 1013.0 |
| 20260505190505 | 15 | 179 | 4.8 | 12.9 | 0.00 | 0.20 | 0.05 | 78 | 1013.0 |
| 20260505190003 | 15 | 168 | 4.8 | 12.9 | 0.00 | 0.20 | 0.05 | 79 | 1013.0 |
| 20260505185504 | 15 | 186 | 4.8 | 14.5 | 0.00 | 0.20 | 0.05 | 83 | 1012.9 |
| 20260505185008 | 15 | 77 | 6.4 | 14.5 | 0.00 | 0.20 | 0.05 | 80 | 1013.0 |
| 20260505184506 | 15 | 130 | 6.4 | 14.5 | 0.00 | 0.20 | 0.05 | 73 | 1013.1 |
| 20260505184003 | 15 | 198 | 8.0 | 12.9 | 0.00 | 0.20 | 0.05 | 81 | 1013.1 |
| 20260505183008 | 14 | 146 | 8.0 | 16.1 | 0.00 | 0.20 | 0.05 | 82 | 1013.0 |
| 20260505182505 | 13 | 151 | 11.3 | 16.1 | 0.00 | 0.20 | 0.05 | 82 | 1013.1 |
| 20260505182007 | 13 | 164 | 9.7 | 16.1 | 0.00 | 0.20 | 0.05 | 86 | 1013.1 |
| 20260505181508 | 13 | 150 | 8.0 | 14.5 | 0.00 | 0.20 | 0.05 | 84 | 1013.1 |
| 20260505181007 | 13 | 161 | 8.0 | 12.9 | 0.00 | 0.20 | 0.05 | 85 | 1013.1 |
| 20260505180503 | 13 | 168 | 6.4 | 11.3 | 0.00 | 0.20 | 0.05 | 86 | 1013.1 |
| 20260505180010 | 13 | 138 | 4.8 | 11.3 | 0.00 | 0.20 | 0.05 | 85 | 1013.0 |
| 20260505175506 | 13 | 152 | 6.4 | 12.9 | 0.00 | 0.20 | 0.05 | 85 | 1013.1 |
| 20260505175003 | 13 | 154 | 8.0 | 12.9 | 0.00 | 0.20 | 0.05 | 85 | 1013.1 |
| 20260505174504 | 13 | 154 | 6.4 | 11.3 | 0.00 | 0.20 | 0.05 | 85 | 1013.1 |
| 20260505174003 | 13 | 159 | 4.8 | 11.3 | 0.00 | 0.20 | 0.05 | 86 | 1013.1 |
| 20260505173505 | 13 | 155 | 6.4 | 11.3 | 0.00 | 0.20 | 0.05 | 86 | 1013.0 |
| 20260505173003 | 12 | 141 | 8.0 | 12.9 | 0.00 | 0.20 | 0.05 | 86 | 1013.0 |
| 20260505172500 | 12 | 154 | 8.0 | 12.9 | 0.00 | 0.20 | 0.05 | 87 | 1013.0 |
| 20260505172007 | 12 | 153 | 6.4 | 11.3 | 0.00 | 0.20 | 0.05 | 86 | 1013.0 |
| 20260505170505 | 12 | 145 | 6.4 | 11.3 | 0.00 | 0.20 | 0.05 | 87 | 1013.0 |
| 20260505170002 | 12 | 144 | 6.4 | 9.7 | 0.00 | 0.20 | 0.05 | 88 | 1013.0 |
| 20260505165502 | 12 | 157 | 4.8 | 11.3 | 0.00 | 0.20 | 0.05 | 87 | 1013.0 |
| 20260505164507 | 12 | 149 | 4.8 | 11.3 | 0.00 | 0.20 | 0.05 | 88 | 1013.1 |
| 20260505164010 | 12 | 153 | 4.8 | 11.3 | 0.00 | 0.20 | 0.05 | 88 | 1013.2 |
| 20260505163502 | 12 | 148 | 4.8 | 8.0 | 0.00 | 0.20 | 0.05 | 90 | 1013.1 |
| 20260505163009 | 12 | 148 | 4.8 | 8.0 | 0.00 | 0.20 | 0.05 | 89 | 1013.1 |
| 20260505162505 | 11 | 148 | 4.8 | 9.7 | 0.00 | 0.20 | 0.05 | 90 | 1013.1 |
| 20260505160502 | 11 | 154 | 4.8 | 11.3 | 0.00 | 0.20 | 0.05 | 90 | 1013.1 |
| 20260505153007 | 11 | 158 | 8.0 | 11.3 | 0.00 | 0.20 | 0.05 | 93 | 1013.0 |
| 20260505152459 | 11 | 161 | 6.4 | 11.3 | 0.00 | 0.20 | 0.05 | 93 | 1013.0 |
| 20260505151505 | 11 | 152 | 6.4 | 11.3 | 0.00 | 0.20 | 0.05 | 93 | 1012.9 |
| 20260505151009 | 11 | 159 | 6.4 | 11.3 | 0.00 | 0.20 | 0.05 | 93 | 1012.8 |
| 20260505150500 | 11 | 159 | 4.8 | 8.0 | 0.00 | 0.20 | 0.05 | 93 | 1012.8 |
| 20260505140504 | 10 | 157 | 3.2 | 8.0 | 0.00 | 0.20 | 0.05 | 94 | 1012.6 |
| 20260505124504 | 10 | 128 | 0.0 | 0.0 | 0.00 | 0.20 | 0.05 | 94 | 1012.1 |
| 20260505123503 | 10 | 128 | 0.0 | 0.0 | 0.00 | 0.20 | 0.05 | 95 | 1012.1 |
| 20260505123003 | 10 | 128 | 0.0 | 0.0 | 0.00 | 0.20 | 0.05 | 95 | 1012.1 |
| 20260505122500 | 10 | 128 | 0.0 | 0.0 | 0.00 | 0.20 | 0.05 | 94 | 1012.0 |
| 20260505122004 | 10 | 128 | 0.0 | 0.0 | 0.00 | 0.20 | 0.05 | 95 | 1012.1 |
| 20260505121504 | 10 | 128 | 0.0 | 0.0 | 0.00 | 0.20 | 0.05 | 95 | 1012.1 |
| 20260505120003 | 10 | 128 | 0.0 | 0.0 | 0.00 | 0.20 | 0.05 | 94 | 1012.1 |
| 20260505115500 | 10 | 128 | 1.6 | 4.8 | 0.00 | 0.20 | 0.05 | 95 | 1012.1 |
| 20260505115002 | 10 | 128 | 1.6 | 4.8 | 0.00 | 0.20 | 0.05 | 94 | 1012.1 |
| 20260505114500 | 10 | 128 | 1.6 | 3.2 | 0.00 | 0.20 | 0.05 | 94 | 1012.0 |
| 20260505114002 | 10 | 128 | 0.0 | 3.2 | 0.00 | 0.20 | 0.05 | 95 | 1012.0 |
| 20260505113002 | 10 | 128 | 0.0 | 0.0 | 0.00 | 0.20 | 0.05 | 94 | 1012.0 |
| 20260505112504 | 10 | 128 | 0.0 | 0.0 | 0.00 | 0.20 | 0.05 | 94 | 1012.0 |
| 20260505112005 | 10 | 128 | 0.0 | 0.0 | 0.00 | 0.20 | 0.05 | 94 | 1012.1 |
| 20260505111503 | 10 | 128 | 0.0 | 0.0 | 0.00 | 0.20 | 0.05 | 94 | 1012.0 |
| 20260505110500 | 10 | 128 | 0.0 | 0.0 | 0.00 | 0.20 | 0.05 | 94 | 1012.0 |
| 20260505101959 | 10 | 128 | 0.0 | 0.0 | 0.03 | 0.20 | 0.05 | 94 | 1012.0 |
| 20260505101503 | 10 | 128 | 0.0 | 0.0 | 0.03 | 0.20 | 0.05 | 94 | 1012.0 |
| 20260505101004 | 10 | 128 | 0.0 | 0.0 | 0.03 | 0.20 | 0.05 | 94 | 1012.1 |
| 20260505100500 | 10 | 128 | 0.0 | 0.0 | 0.03 | 0.20 | 0.05 | 94 | 1012.0 |
| 20260505095004 | 10 | 128 | 0.0 | 0.0 | 0.03 | 0.20 | 0.05 | 94 | 1012.0 |
| 20260505094459 | 10 | 128 | 0.0 | 0.0 | 0.03 | 0.20 | 0.05 | 94 | 1012.0 |
| 20260505094006 | 10 | 128 | 0.0 | 1.6 | 0.00 | 0.18 | 0.03 | 93 | 1012.1 |
| 20260505093502 | 10 | 127 | 1.6 | 3.2 | 0.00 | 0.18 | 0.03 | 93 | 1012.1 |
| 20260505093002 | 10 | 128 | 1.6 | 3.2 | 0.00 | 0.18 | 0.03 | 93 | 1012.1 |
| 20260505092458 | 10 | 127 | 3.2 | 4.8 | 0.00 | 0.18 | 0.03 | 93 | 1012.2 |
| 20260505092000 | 10 | 127 | 3.2 | 6.4 | 0.00 | 0.18 | 0.03 | 93 | 1012.1 |
| 20260505091502 | 10 | 127 | 1.6 | 6.4 | 0.00 | 0.18 | 0.03 | 93 | 1012.1 |
| 20260505091003 | 10 | 146 | 3.2 | 6.4 | 0.00 | 0.18 | 0.03 | 93 | 1012.1 |
| 20260505090503 | 10 | 146 | 3.2 | 8.0 | 0.00 | 0.18 | 0.03 | 93 | 1012.1 |
| 20260505090006 | 10 | 146 | 4.8 | 8.0 | 0.00 | 0.18 | 0.03 | 93 | 1012.2 |
| 20260505085502 | 10 | 171 | 3.2 | 9.7 | 0.00 | 0.18 | 0.03 | 93 | 1012.2 |
| 20260505085005 | 10 | 157 | 3.2 | 9.7 | 0.00 | 0.18 | 0.03 | 92 | 1012.3 |
| 20260505084503 | 10 | 121 | 4.8 | 9.7 | 0.00 | 0.18 | 0.03 | 93 | 1012.3 |
| 20260505083959 | 10 | 101 | 4.8 | 11.3 | 0.00 | 0.18 | 0.03 | 92 | 1012.3 |
| 20260505083502 | 10 | 96 | 4.8 | 11.3 | 0.00 | 0.18 | 0.03 | 92 | 1012.3 |
| 20260505083003 | 10 | 108 | 3.2 | 9.7 | 0.00 | 0.18 | 0.03 | 92 | 1012.4 |
| 20260505082502 | 10 | 132 | 3.2 | 6.4 | 0.03 | 0.18 | 0.03 | 92 | 1012.4 |
| 20260505082000 | 10 | 114 | 3.2 | 9.7 | 0.03 | 0.18 | 0.03 | 93 | 1012.3 |
| 20260505081504 | 10 | 97 | 3.2 | 9.7 | 0.03 | 0.18 | 0.03 | 92 | 1012.3 |
| 20260505081002 | 10 | 136 | 4.8 | 11.3 | 0.03 | 0.18 | 0.03 | 92 | 1012.4 |
| 20260505080008 | 10 | 106 | 4.8 | 11.3 | 0.03 | 0.18 | 0.03 | 92 | 1012.5 |
| 20260505075457 | 10 | 100 | 4.8 | 12.9 | 0.05 | 0.18 | 0.03 | 92 | 1012.6 |
| 20260505075002 | 10 | 142 | 4.8 | 12.9 | 0.05 | 0.18 | 0.03 | 92 | 1012.6 |
| 20260505074003 | 10 | 122 | 4.8 | 11.3 | 0.05 | 0.18 | 0.03 | 92 | 1012.6 |
| 20260505073458 | 10 | 115 | 4.8 | 11.3 | 0.05 | 0.18 | 0.03 | 92 | 1012.6 |
| 20260505072502 | 10 | 138 | 3.2 | 11.3 | 0.03 | 0.15 | 0.00 | 93 | 1012.6 |
| 20260505071007 | 10 | 100 | 3.2 | 12.9 | 0.05 | 0.15 | 0.00 | 93 | 1012.6 |
| 20260505070006 | 10 | 161 | 6.4 | 14.5 | 0.05 | 0.15 | 0.15 | 93 | 1012.6 |
| 20260505065500 | 10 | 168 | 4.8 | 16.1 | 0.03 | 0.13 | 0.13 | 92 | 1012.7 |
| 20260505064500 | 10 | 56 | 8.0 | 14.5 | 0.03 | 0.13 | 0.13 | 92 | 1012.6 |
| 20260505064001 | 10 | 150 | 8.0 | 16.1 | 0.03 | 0.13 | 0.13 | 92 | 1012.6 |
| 20260505063504 | 10 | 155 | 9.7 | 24.1 | 0.03 | 0.13 | 0.13 | 92 | 1012.5 |
| 20260505063004 | 11 | 165 | 11.3 | 24.1 | 0.03 | 0.13 | 0.13 | 92 | 1012.4 |
| 20260505062504 | 11 | 155 | 12.9 | 24.1 | 0.03 | 0.13 | 0.13 | 92 | 1012.5 |
| 20260505062002 | 11 | 175 | 12.9 | 24.1 | 0.03 | 0.13 | 0.13 | 92 | 1012.4 |
| 20260505061504 | 11 | 165 | 12.9 | 19.3 | 0.00 | 0.10 | 0.10 | 92 | 1012.5 |
| 20260505061002 | 11 | 153 | 11.3 | 25.7 | 0.00 | 0.10 | 0.10 | 91 | 1012.6 |
| 20260505060504 | 11 | 155 | 11.3 | 25.7 | 0.00 | 0.10 | 0.10 | 91 | 1012.7 |